Temp_Advection
nan nan nan nan nan nan nan nan nan nan nan nan nan nan nan nan nan nan nan nan nan nan nan nan nan nan nan nan nan nan nan nan nan nan nan nan nan nan nan nan nan nan nan nan nan nan nan nan nan
nan 0 0 -0 -0 0 -0 -0 0 0 -0 0 -0 -0 -0 -0 0 0 0 0 -0 -0 -0 0 0 0 0 -0 -0 0 0 0 -0 0 0 0 0 0 0 0 0 0 -0 -0 0 0 -0 -0 nan
nan 0 -0 -0 0 0 0 -0 -0 0 0 -0 -0 -0 -0 0 0 -0 -0 0 0 -0 0 0 0 0 0 0 -0 0 0 0 -0 -0 -0 0 0 0 0 0 0 0 0 -0 -0 0 0 -0 nan
nan -0 -1 -0 0 0 0 -0 -0 -0 -0 -0 -0 -0 0 -0 -0 -0 -0 -0 0 0 0 0 0 -0 0 0 0 0 0 0 0 -0 -0 -0 -0 0 0 0 0 0 0 0 -0 0 0 0 nan
nan -0 -0 0 0 0 -0 0 0 -0 -0 -0 -0 -0 -0 0 0 0 0 0 0 0 0 0 0 -0 0 0 0 0 0 0 -0 -0 -0 0 0 0 0 0 0 0 0 0 0 0 0 0 nan
nan -0 -0 0 0 0 -0 0 -0 -0 0 -0 -0 -0 -0 0 0 -0 0 -0 -0 0 0 0 -0 0 0 0 0 0 0 0 0 0 0 0 0 0 0 0 0 0 0 0 0 0 0 0 nan
nan -0 -0 0 0 0 -0 -0 -0 0 0 0 -0 -0 0 0 -0 -0 -0 -0 -0 -0 -0 0 0 0 0 0 0 0 0 0 -0 0 0 0 0 0 0 0 0 -0 0 0 0 -0 0 0 nan
nan -0 0 0 -0 -0 -0 -0 0 -0 0 0 -0 -0 -0 0 0 0 -0 -0 -0 -0 -0 -0 -0 -0 0 0 0 0 0 0 0 0 0 -0 -0 0 0 0 0 -0 0 0 0 -0 0 0 nan
nan -0 0 0 0 0 0 -0 -0 -0 -0 -0 -0 -0 -0 -0 -0 0 -0 -0 -0 -0 -0 -0 -0 -0 0 -0 0 0 0 0 0 0 -0 -0 -0 -0 0 0 0 0 0 0 -0 -0 0 0 nan
nan 0 0 0 0 0 0 0 -0 -0 -0 -0 0 0 0 0 0 -0 0 -0 -0 -0 -0 -0 -0 -0 -0 -0 -0 0 0 0 -0 -0 -0 -0 0 0 0 0 0 1 0 0 -0 0 1 0 nan
nan -0 0 0 0 0 -0 -0 -0 -0 0 -0 -0 0 0 0 0 0 -0 -0 -0 -0 0 0 -0 -0 -0 -0 0 0 0 -0 -0 -0 -0 0 0 0 0 0 0 0 0 0 0 0 0 0 nan
nan 0 -0 -0 0 -0 -0 -0 -0 -0 -0 0 -0 -0 0 0 0 0 -0 -0 -0 -0 0 -0 -0 -0 -0 -0 -0 0 0 0 0 -0 -0 0 0 0 0 0 0 0 0 0 0 0 0 0 nan
nan 0 -0 -0 -0 -0 0 0 -0 -0 -0 0 0 0 0 -0 -0 0 0 0 0 -0 -0 -0 -0 -0 -0 -0 -0 -0 -0 -0 -0 -0 -0 0 0 0 0 0 1 0 0 0 0 -0 -0 -0 nan
nan -0 -0 -0 -0 0 0 0 -0 -0 0 0 0 -0 -0 0 -0 -0 0 0 0 -0 -0 -0 -0 -0 -0 -0 -0 -0 -0 -0 -0 -0 -0 -0 0 0 0 0 0 0 0 0 0 -0 -0 0 nan
nan -0 -0 -0 -0 0 0 0 -0 -0 0 0 0 0 0 0 0 0 0 0 -0 -0 -0 -0 -0 -0 -0 -0 -0 -0 -0 -0 -0 -0 -0 0 0 -0 -0 -0 0 0 0 -0 -0 0 0 0 nan
nan -0 0 -0 -0 -0 -0 0 -0 0 0 0 0 0 0 0 0 0 0 0 0 -0 -0 -0 -0 -0 -0 -0 -0 -0 -0 -0 -0 -0 -0 0 0 0 -0 -0 -0 0 0 0 0 0 1 0 nan
nan -0 -0 -0 -0 -0 0 0 -0 -0 0 0 0 1 1 0 0 0 0 0 0 -0 -0 -0 -0 -0 -0 -0 -0 -0 -0 -0 0 -0 -0 0 -0 0 -0 -0 -0 -0 0 0 0 0 0 0 nan
nan -0 -0 0 0 0 0 0 -0 -0 0 0 0 0 0 0 0 0 0 0 -0 -0 -0 -0 -0 -0 -0 -0 -0 0 0 0 0 0 0 0 0 0 -0 -0 -0 0 -0 0 1 0 0 1 nan
nan 0 0 -0 0 -0 0 0 -0 -0 -0 0 0 1 0 -0 0 0 -0 -0 -0 -0 -0 -0 -0 -0 -1 -1 -1 -1 -1 -0 -0 -0 0 0 0 0 0 -0 -0 -0 -0 0 0 -0 0 0 nan
nan 0 0 -0 -0 -0 0 -0 0 -0 -0 0 1 0 0 0 0 0 0 -0 -0 -0 -0 -0 -1 -1 -1 -1 -1 -1 -1 -0 -0 -0 -0 0 0 0 0 -0 -0 0 -0 -0 0 0 -0 -0 nan
nan 0 0 0 -0 -0 -0 -0 -0 -0 -0 -0 0 0 0 0 0 0 -0 -0 -0 -0 -0 -1 -1 -1 -1 -1 -1 -1 -1 -1 -0 -0 0 0 0 0 0 -0 -0 0 -0 -0 0 0 -0 0 nan
nan 0 0 0 -0 -0 -0 -0 -0 0 -0 -0 0 0 0 0 -0 -0 -0 -0 -0 -0 -0 -0 -1 -1 -1 -1 -1 -1 -1 -2 -1 -1 -1 -0 0 0 0 -0 -0 -0 -0 -0 -0 -0 0 0 nan
nan 0 0 0 0 -0 -0 -0 -0 0 0 -0 0 1 0 0 -0 -0 -0 -0 -0 -0 -0 -0 -0 -0 -0 -0 -1 -1 -1 -1 -1 -1 -1 -1 -0 0 -0 -0 -0 -0 -0 -0 0 0 0 0 nan
nan -0 -0 -0 -0 0 -0 0 -0 0 0 -0 0 0 0 0 -0 -0 -0 -0 -0 -0 -0 -0 -0 -0 -0 -0 -0 -0 -1 -1 -1 -1 -0 0 -1 -0 0 -0 -0 -0 -0 0 0 0 0 -0 nan
nan -0 -0 0 -0 -0 -0 0 -0 -0 -0 -0 -0 0 0 0 -0 -0 -0 -0 -0 -0 -0 -0 -0 -0 -0 -0 -0 -0 -0 -1 -1 -1 -1 -0 0 -1 -1 -0 -0 -0 -0 -0 -0 -0 -0 -0 nan
nan -0 -0 -0 0 -0 -0 0 0 0 -0 -0 -0 -0 -0 -0 -0 -0 -0 -0 -0 -0 -0 -0 -0 -0 -0 -0 -0 -0 -0 -0 -0 -1 -1 -1 -1 -0 -1 -1 -0 -0 0 -0 -0 -0 -0 -0 nan
nan 0 -0 0 0 0 -0 -0 0 -0 -0 -0 0 0 -0 -0 -0 -0 -0 0 0 0 -0 -0 -0 -0 -0 -0 -1 -1 -0 -0 -0 0 0 -1 -1 -1 -0 -0 -1 -0 0 -0 -0 -0 -0 -0 nan
nan 0 -0 0 -0 0 -0 -0 0 0 0 -0 -0 0 -0 -0 -0 -0 0 0 -0 -0 0 0 0 -0 -0 -0 -0 -1 -1 -0 -0 0 1 -0 -1 -1 -1 -0 -0 -1 -1 -0 -0 -0 -0 -0 nan
nan -0 -0 0 0 0 0 -0 -0 0 -0 -0 0 0 0 -0 -0 -0 -0 0 -0 -0 -0 -0 -0 0 0 -1 -1 -0 -1 -1 -0 -0 0 -0 -1 -1 -1 -1 -0 -0 -0 -0 -0 -0 -0 0 nan
nan nan nan nan nan nan nan nan nan nan nan nan nan nan nan nan nan nan nan nan nan nan nan nan nan nan nan nan nan nan nan nan nan nan nan nan nan nan nan nan nan nan nan nan nan nan nan nan nan
Wind_Speed
9 9 9 4 4 5 2 1 1 3 2 3 6 11 9 6 3 4 2 2 2 4 3 3 4 7 7 6 7 7 9 9 8 8 8 9 8 6 5 4 4 6 7 8 10 10 11 11 12
10 6 4 2 5 4 2 1 2 2 3 4 9 7 6 3 5 4 2 2 3 4 5 6 3 6 8 7 6 7 8 9 8 8 8 7 6 6 5 4 3 3 4 5 9 10 11 11 14
7 5 3 4 3 3 3 1 1 2 6 4 3 9 4 3 6 3 6 1 2 3 5 8 4 5 8 8 8 7 7 8 8 8 8 7 6 5 6 5 4 3 4 4 10 12 11 11 12
2 3 5 5 5 3 5 1 3 1 2 8 6 6 6 6 2 4 6 2 4 4 7 5 4 4 6 8 10 9 8 8 7 8 8 6 7 7 6 7 7 6 4 5 11 12 11 11 12
5 3 5 4 3 1 1 4 8 3 3 11 3 2 4 7 6 2 7 3 3 6 10 9 6 4 4 6 8 9 9 9 9 9 9 9 9 9 8 8 11 10 7 6 8 11 11 10 13
3 2 5 3 2 1 3 7 5 5 5 4 7 4 3 5 1 6 6 8 5 3 4 7 6 6 6 5 7 8 8 9 10 10 10 10 10 10 10 11 13 13 10 7 8 8 10 12 13
5 4 3 4 5 2 1 4 4 4 4 5 4 3 6 5 5 4 5 6 7 6 1 3 4 4 7 8 8 8 8 8 9 9 10 11 11 11 12 13 15 15 13 8 9 8 7 11 14
4 4 3 4 3 0 2 2 2 2 1 3 1 4 4 7 5 1 3 5 7 6 4 3 1 6 7 9 11 11 10 11 11 11 11 12 12 13 14 15 16 16 14 11 10 10 11 13 15
3 4 2 2 3 2 1 2 3 3 3 2 3 4 9 6 5 4 1 5 8 5 5 5 5 3 3 6 8 11 12 12 12 13 12 13 14 15 17 17 16 19 19 12 11 12 14 16 16
6 4 1 1 1 2 2 2 3 3 5 2 9 12 10 9 4 1 1 5 8 6 8 9 8 6 6 5 4 8 12 11 11 13 14 14 15 17 17 17 21 21 16 14 14 15 19 18 18
3 3 4 3 5 4 4 4 8 3 3 0 9 12 9 7 5 3 4 5 6 8 9 10 10 9 7 7 8 7 8 7 11 13 12 15 17 17 18 19 22 19 17 16 14 16 21 19 18
5 5 4 2 4 3 2 4 4 1 3 5 9 10 7 8 6 4 5 5 5 6 9 10 10 10 9 7 6 7 7 7 7 11 14 16 15 19 21 22 24 17 14 13 14 16 20 19 17
4 2 4 3 3 4 4 4 3 8 5 8 6 7 8 8 7 10 8 6 4 5 7 10 12 13 14 13 12 9 8 8 8 9 11 11 12 15 23 26 28 20 16 12 12 16 20 19 18
4 4 3 2 1 3 3 4 5 4 4 11 8 9 9 8 10 13 10 4 2 4 6 9 11 13 13 13 13 13 12 10 9 10 11 11 11 11 13 18 23 16 15 13 8 11 17 19 19
3 3 3 2 1 2 6 1 4 4 12 12 10 8 11 13 14 15 12 6 1 3 6 9 11 12 12 13 14 14 13 12 11 11 12 11 11 11 11 13 16 25 20 23 20 18 19 17 20
3 4 3 2 5 2 1 6 4 7 13 12 13 11 14 15 16 16 12 7 2 2 6 8 9 10 12 14 15 16 16 14 11 11 11 12 11 8 11 8 16 17 21 22 22 23 20 14 21
7 1 1 5 2 4 1 5 5 6 10 11 12 12 12 16 17 13 9 5 2 2 6 7 9 10 12 13 15 16 15 15 14 11 10 11 12 10 9 9 15 21 19 22 29 23 22 18 25
3 3 4 5 3 3 5 7 6 5 4 8 10 6 18 20 15 9 7 5 2 3 7 9 10 11 12 13 14 14 15 14 14 14 12 11 13 11 10 12 13 19 23 29 29 22 24 25 31
3 4 6 5 3 3 5 6 7 4 2 2 6 26 22 18 13 13 10 7 2 3 7 10 11 13 15 18 21 21 20 19 18 15 13 12 13 18 16 14 12 17 22 26 26 25 32 26 31
2 4 6 6 1 4 7 7 3 7 6 16 27 23 25 23 18 13 9 5 3 6 8 11 13 14 16 17 19 22 24 22 20 19 17 14 13 14 19 19 17 14 20 24 27 24 27 38 36
2 3 4 5 8 4 5 4 4 5 17 22 25 23 21 18 15 11 7 5 4 8 11 14 16 17 18 19 19 19 20 21 22 20 19 16 14 14 16 18 20 19 17 23 25 27 29 28 27
3 1 3 6 6 4 5 4 2 3 5 8 17 19 17 15 12 9 7 6 7 10 13 15 17 18 18 19 20 20 21 23 25 25 23 20 16 13 15 17 20 21 22 22 24 26 27 30 36
6 2 5 3 2 4 2 2 5 8 4 4 8 17 14 12 9 8 8 9 10 11 14 16 16 16 17 17 18 20 22 22 22 24 25 23 16 14 12 16 19 22 20 21 23 28 27 30 28
5 4 3 3 3 2 4 4 4 5 5 4 6 12 10 9 8 8 9 10 12 14 14 14 16 17 17 18 20 22 23 25 26 24 25 23 23 13 14 15 19 23 25 21 26 24 28 28 27
8 6 4 5 3 5 3 1 3 4 8 9 10 10 8 8 9 10 11 11 12 14 15 16 17 18 20 20 21 23 24 25 28 27 25 24 24 21 16 18 20 21 24 28 28 24 27 31 30
1 3 4 5 2 5 6 4 3 2 13 14 11 8 5 5 7 9 10 12 13 13 16 19 22 24 25 25 25 24 24 25 26 28 27 25 23 24 22 17 22 23 24 23 28 29 27 28 29
1 1 2 3 0 2 3 1 2 3 5 8 6 3 4 5 8 10 9 9 11 13 16 21 24 28 28 28 28 27 26 25 26 27 28 27 26 25 22 22 22 25 27 26 23 27 29 28 27
2 2 3 2 4 6 4 3 3 6 4 3 2 4 6 8 9 12 10 10 11 12 16 21 27 30 30 30 29 28 27 26 26 26 28 28 27 23 21 22 25 25 26 27 26 26 29 27 28
3 2 2 2 4 3 4 4 3 6 5 4 4 3 5 9 11 13 11 11 11 13 17 21 29 35 34 33 31 31 27 26 26 27 27 28 28 24 22 22 21 21 24 26 25 27 27 27 27
2 3 3 3 5 3 3 7 3 5 1 4 6 8 9 9 13 17 18 11 14 18 23 27 33 36 34 34 34 30 28 27 28 27 27 28 28 24 23 24 20 25 23 25 25 26 26 26 26
Wind_Direction
123 133 135 123 70 68 56 55 353 7 26 27 30 85 111 81 64 132 77 59 153 214 177 217 185 203 183 156 162 158 153 156 159 163 163 159 154 155 152 136 104 92 112 127 142 147 152 147 137
123 126 85 82 81 73 281 337 51 14 327 340 99 87 53 73 60 69 112 43 225 223 215 234 226 194 201 188 170 165 166 165 166 170 171 180 169 173 175 169 147 113 103 148 155 154 152 151 141
112 75 53 80 74 113 135 329 237 360 31 46 95 68 69 57 62 42 353 133 215 231 215 223 222 188 204 206 196 188 179 174 179 184 189 192 197 196 198 193 182 168 106 129 159 156 152 152 151
135 113 86 89 105 358 139 218 338 311 12 47 89 64 79 55 73 33 346 344 211 185 176 176 207 254 213 210 210 205 205 199 193 198 195 214 216 219 216 204 194 193 181 141 155 162 160 154 162
54 40 54 72 51 118 281 63 33 58 87 44 129 70 75 72 71 39 24 43 169 182 177 182 186 227 221 215 217 215 213 211 209 214 222 231 228 227 222 214 201 199 201 181 174 179 172 168 168
59 72 71 116 101 31 344 29 76 29 53 55 80 101 101 110 75 38 18 46 54 167 188 200 212 230 221 214 221 225 226 226 224 224 231 235 232 231 229 225 212 204 197 203 194 189 188 182 175
88 69 130 113 153 68 332 14 46 33 15 45 123 88 135 138 93 36 18 27 36 56 186 183 199 231 234 227 220 215 225 239 239 236 238 239 238 235 237 234 222 211 207 204 202 203 188 183 189
43 77 70 20 156 185 304 32 57 93 74 55 118 157 173 146 139 153 1 12 3 14 41 55 262 253 239 243 233 223 230 233 239 240 239 244 241 235 235 233 228 223 216 220 212 207 198 181 191
16 59 57 33 166 183 93 68 26 352 333 59 102 125 138 131 151 189 298 342 355 11 33 31 35 7 287 269 263 237 229 231 245 249 245 244 244 244 238 231 222 227 222 226 222 214 207 195 196
64 83 124 307 78 86 61 58 356 351 354 56 113 129 139 152 172 76 249 10 2 43 54 52 44 35 18 348 316 263 244 239 240 250 249 253 253 251 246 233 218 217 227 231 231 223 211 205 199
71 114 145 44 69 53 25 19 344 360 8 328 169 152 150 153 154 186 138 44 30 65 70 65 57 47 35 25 8 342 336 292 263 257 252 251 252 252 244 229 216 212 226 228 227 216 209 207 200
87 55 111 98 51 46 40 321 321 289 278 152 145 162 161 156 165 187 133 76 86 73 53 40 30 18 10 360 344 336 324 318 308 282 273 257 253 251 245 230 229 219 219 242 242 222 207 202 195
53 74 72 82 34 353 315 311 269 270 226 173 175 183 164 152 151 151 141 120 104 81 44 21 8 360 356 350 340 324 303 299 299 289 282 280 265 255 246 236 228 217 213 229 226 208 206 204 203
37 55 71 65 16 323 288 283 327 254 250 175 175 160 170 176 161 155 154 155 130 52 29 12 358 359 0 0 0 349 333 312 291 283 282 278 275 285 266 251 230 218 196 177 174 211 212 212 213
76 57 9 351 350 279 323 291 213 203 172 175 174 161 172 175 171 175 172 179 129 22 10 355 359 0 4 9 8 5 355 339 320 295 276 279 283 292 306 259 244 218 230 252 244 232 215 212 226
47 50 22 299 343 258 106 262 276 193 185 192 188 189 179 173 172 169 171 175 182 339 352 357 3 11 12 11 8 3 359 351 335 317 293 277 278 299 301 254 239 241 235 239 212 192 192 205 225
8 258 302 312 30 304 231 268 268 285 234 227 221 209 180 160 150 150 151 144 142 14 359 358 1 358 356 354 353 352 351 349 340 320 305 276 273 274 298 295 235 235 235 223 205 208 221 242 237
272 301 283 235 274 306 275 263 298 289 257 250 243 197 150 138 127 119 107 99 70 14 356 346 343 339 340 337 335 336 339 336 333 331 310 287 259 250 263 275 247 241 232 222 212 234 249 240 227
246 263 267 265 192 332 265 274 272 299 3 178 158 138 124 114 109 116 107 105 81 2 338 337 338 339 333 334 336 334 333 332 327 319 315 299 269 248 246 252 243 237 242 234 245 244 249 249 231
298 286 291 296 267 3 289 298 336 39 54 109 119 118 110 106 105 101 101 91 18 357 348 339 336 333 331 330 331 331 329 328 322 313 307 302 282 257 243 250 246 243 246 249 248 246 255 238 228
299 278 321 285 320 261 305 334 101 43 81 95 106 110 105 100 95 86 78 65 22 355 347 340 336 333 331 329 326 320 316 313 315 309 299 293 288 264 248 248 245 249 246 249 251 244 247 249 231
312 173 297 304 356 299 34 292 264 172 104 81 107 102 98 94 88 84 66 34 2 348 337 335 336 335 333 334 333 335 334 328 323 319 314 300 287 274 245 239 246 249 245 249 255 251 251 253 240
238 301 273 227 232 332 322 133 271 144 163 120 107 105 99 90 77 56 27 2 346 340 341 342 346 345 346 346 346 342 337 334 329 322 317 312 294 266 252 240 248 251 251 255 250 250 249 242 249
308 325 27 62 99 342 254 154 229 181 164 114 100 104 92 75 56 38 14 355 353 353 353 0 3 2 2 356 350 344 341 336 329 324 319 314 309 286 244 253 252 252 252 249 248 249 248 249 245
28 21 334 349 8 235 336 32 316 7 123 149 133 106 83 50 25 13 8 4 4 3 7 8 3 358 352 344 340 340 338 335 337 331 322 310 304 297 262 245 252 252 251 248 252 244 241 247 242
327 125 162 263 261 286 341 268 345 75 121 124 118 111 91 48 20 10 2 357 356 358 357 353 349 346 342 338 334 333 330 332 333 334 329 316 296 291 285 267 250 251 254 250 248 248 244 239 246
330 212 178 297 200 46 257 14 357 144 123 118 119 98 46 11 2 352 344 339 339 341 345 341 339 336 333 332 328 325 325 325 325 327 328 323 310 290 279 276 268 252 250 251 249 246 246 236 238
161 315 12 354 336 306 292 250 256 201 177 154 73 13 334 348 336 330 315 312 320 329 331 334 337 334 329 326 324 324 321 319 320 318 325 326 316 299 285 276 281 254 243 245 247 247 245 240 235
21 311 239 184 178 243 291 260 321 188 155 170 200 256 324 338 336 343 326 307 312 317 321 326 331 329 325 324 321 321 317 319 316 317 320 325 320 304 284 280 277 254 248 239 243 245 240 237 233
158 210 166 132 265 228 259 265 74 93 51 11 42 32 13 350 338 329 322 302 307 318 320 322 324 324 321 321 320 318 313 316 317 315 317 322 321 301 276 278 278 250 251 240 242 243 237 233 236
Height
1508 1509 1509 1510 1521 1524 1535 1531 1527 1526 1523 1523 1521 1519 1525 1528 1530 1540 1534 1534 1534 1533 1533 1534 1535 1535 1536 1536 1536 1536 1536 1537 1538 1540 1539 1541 1541 1542 1543 1542 1542 1542 1542 1542 1542 1543 1544 1544 1545
1510 1511 1511 1511 1527 1539 1541 1529 1528 1526 1524 1524 1524 1524 1527 1533 1533 1534 1535 1534 1533 1533 1534 1533 1535 1535 1535 1536 1536 1537 1536 1536 1537 1539 1540 1540 1542 1542 1543 1543 1543 1542 1542 1542 1543 1544 1544 1545 1546
1511 1511 1513 1519 1534 1541 1541 1530 1528 1525 1525 1525 1526 1527 1530 1535 1535 1535 1534 1532 1532 1533 1534 1533 1534 1535 1536 1536 1536 1537 1537 1536 1536 1538 1539 1540 1542 1542 1543 1543 1543 1543 1543 1543 1543 1544 1545 1546 1547
1511 1512 1514 1531 1537 1535 1532 1530 1528 1526 1526 1527 1528 1530 1535 1535 1535 1536 1534 1532 1532 1532 1532 1533 1534 1534 1534 1535 1536 1536 1537 1536 1536 1537 1538 1540 1541 1541 1542 1542 1543 1544 1544 1544 1544 1545 1545 1547 1548
1512 1513 1527 1534 1534 1531 1528 1527 1526 1527 1528 1528 1527 1533 1535 1537 1536 1537 1535 1533 1532 1532 1532 1532 1533 1533 1534 1534 1535 1536 1536 1536 1536 1537 1537 1538 1539 1540 1541 1541 1542 1543 1543 1543 1544 1545 1546 1547 1548
1514 1516 1536 1543 1536 1532 1530 1529 1527 1529 1530 1528 1530 1533 1536 1537 1538 1536 1535 1533 1531 1532 1532 1532 1533 1532 1533 1534 1535 1535 1536 1537 1536 1536 1537 1536 1537 1538 1539 1540 1540 1541 1542 1543 1543 1544 1545 1546 1547
1516 1523 1535 1537 1538 1533 1531 1531 1532 1532 1531 1532 1532 1535 1536 1537 1537 1536 1536 1535 1533 1532 1531 1531 1532 1532 1533 1533 1533 1534 1535 1536 1535 1535 1535 1535 1535 1536 1537 1539 1539 1540 1540 1542 1543 1543 1544 1545 1547
1519 1524 1532 1538 1539 1537 1533 1533 1533 1533 1533 1535 1535 1535 1537 1537 1537 1536 1536 1535 1534 1533 1533 1532 1531 1531 1530 1532 1531 1531 1531 1533 1533 1533 1533 1533 1533 1534 1534 1535 1537 1539 1539 1539 1540 1542 1543 1545 1545
1522 1534 1543 1538 1537 1536 1534 1534 1534 1534 1533 1534 1534 1535 1539 1540 1539 1539 1537 1536 1535 1533 1533 1533 1532 1531 1530 1529 1530 1529 1528 1529 1530 1531 1530 1531 1531 1532 1531 1532 1535 1536 1537 1538 1538 1539 1541 1542 1543
1524 1539 1536 1535 1535 1536 1535 1535 1535 1535 1534 1535 1536 1536 1537 1538 1539 1540 1539 1537 1536 1534 1534 1533 1532 1531 1531 1530 1529 1527 1527 1527 1527 1528 1527 1528 1529 1529 1529 1530 1531 1533 1534 1535 1536 1537 1539 1540 1540
1527 1537 1536 1538 1538 1538 1539 1540 1539 1538 1538 1536 1535 1535 1536 1537 1538 1537 1537 1538 1537 1536 1535 1534 1533 1533 1532 1530 1529 1528 1526 1526 1525 1522 1524 1524 1525 1526 1526 1527 1528 1529 1531 1532 1533 1534 1535 1538 1539
1533 1535 1535 1536 1537 1537 1538 1537 1536 1536 1537 1536 1535 1537 1538 1537 1536 1536 1537 1537 1537 1538 1537 1535 1534 1533 1532 1530 1529 1527 1526 1525 1523 1522 1521 1521 1521 1522 1522 1524 1525 1526 1529 1531 1531 1532 1533 1536 1538
1535 1536 1537 1538 1538 1538 1537 1536 1535 1532 1532 1532 1533 1534 1535 1536 1537 1536 1536 1537 1537 1536 1536 1536 1534 1532 1530 1528 1527 1525 1525 1522 1521 1520 1520 1519 1519 1519 1519 1520 1519 1521 1525 1527 1530 1532 1533 1534 1537
1539 1539 1540 1539 1538 1537 1536 1535 1535 1532 1530 1531 1532 1532 1532 1533 1534 1537 1537 1537 1537 1537 1536 1535 1533 1531 1529 1527 1524 1523 1522 1521 1519 1517 1517 1517 1517 1516 1516 1514 1503 1508 1520 1523 1528 1532 1533 1534 1534
1538 1540 1540 1539 1536 1535 1535 1532 1531 1528 1529 1529 1530 1531 1531 1532 1532 1532 1535 1536 1537 1536 1535 1534 1532 1530 1528 1526 1525 1523 1520 1519 1517 1516 1515 1514 1514 1514 1514 1515 1513 1512 1512 1521 1520 1521 1531 1529 1533
1540 1542 1546 1538 1535 1532 1532 1537 1528 1528 1528 1528 1528 1530 1532 1533 1533 1533 1533 1535 1535 1536 1535 1533 1531 1529 1528 1526 1524 1522 1520 1518 1516 1515 1513 1512 1512 1513 1513 1513 1513 1514 1515 1516 1518 1518 1523 1521 1524
1549 1549 1542 1539 1536 1535 1533 1533 1528 1527 1527 1527 1528 1529 1530 1532 1534 1535 1535 1534 1534 1534 1534 1533 1531 1529 1526 1525 1523 1521 1519 1517 1515 1513 1512 1511 1510 1510 1511 1511 1512 1511 1513 1514 1517 1518 1518 1518 1520
1555 1551 1545 1541 1535 1532 1533 1533 1528 1525 1526 1526 1527 1530 1531 1533 1536 1537 1536 1535 1534 1534 1533 1533 1530 1528 1526 1524 1522 1520 1517 1515 1513 1511 1510 1509 1508 1507 1508 1509 1509 1510 1511 1512 1513 1514 1515 1514 1516
1552 1552 1550 1542 1537 1537 1534 1531 1526 1524 1523 1523 1522 1527 1533 1533 1536 1536 1536 1536 1536 1533 1532 1531 1529 1526 1523 1521 1517 1515 1514 1512 1510 1508 1507 1505 1504 1503 1503 1504 1505 1506 1507 1507 1509 1510 1511 1513 1515
1551 1553 1550 1543 1539 1541 1534 1531 1528 1527 1524 1522 1524 1528 1531 1534 1536 1538 1537 1536 1535 1534 1531 1530 1528 1526 1523 1520 1517 1513 1510 1508 1506 1504 1503 1502 1500 1499 1499 1499 1500 1502 1503 1504 1505 1506 1506 1506 1508
1552 1553 1554 1555 1545 1538 1537 1535 1532 1535 1532 1530 1530 1531 1531 1533 1534 1536 1537 1536 1534 1532 1531 1529 1527 1524 1521 1518 1515 1512 1509 1506 1502 1501 1499 1497 1495 1494 1494 1495 1495 1496 1498 1499 1500 1501 1502 1504 1506
1555 1551 1552 1554 1557 1554 1542 1556 1538 1537 1536 1536 1535 1535 1536 1534 1535 1536 1537 1536 1534 1532 1531 1529 1526 1523 1520 1517 1514 1509 1505 1501 1498 1495 1493 1492 1491 1490 1490 1491 1491 1491 1492 1494 1495 1495 1496 1498 1499
1552 1549 1550 1549 1553 1555 1545 1551 1539 1536 1537 1541 1540 1536 1537 1537 1536 1536 1535 1535 1534 1532 1529 1527 1525 1522 1519 1516 1512 1509 1504 1500 1496 1492 1489 1487 1486 1485 1485 1486 1486 1487 1487 1489 1490 1490 1491 1493 1494
1549 1548 1550 1553 1556 1566 1543 1548 1535 1537 1538 1543 1544 1541 1540 1539 1537 1535 1534 1535 1534 1532 1529 1525 1523 1520 1518 1515 1511 1507 1503 1498 1493 1489 1485 1483 1481 1480 1481 1481 1481 1481 1482 1482 1484 1485 1486 1487 1488
1555 1559 1566 1564 1571 1548 1540 1549 1538 1536 1533 1535 1540 1541 1540 1538 1537 1536 1535 1534 1533 1532 1528 1525 1522 1519 1516 1512 1509 1505 1501 1496 1490 1485 1482 1479 1477 1475 1475 1475 1475 1475 1476 1476 1477 1479 1480 1482 1482
1556 1560 1586 1566 1572 1556 1547 1541 1545 1540 1537 1538 1540 1540 1540 1539 1538 1537 1536 1535 1533 1531 1527 1523 1521 1517 1513 1510 1506 1502 1498 1494 1489 1483 1479 1475 1472 1470 1468 1468 1469 1469 1470 1470 1471 1471 1473 1476 1477
1558 1561 1558 1565 1563 1577 1551 1544 1542 1541 1543 1541 1541 1541 1540 1539 1538 1537 1536 1534 1531 1529 1525 1523 1519 1515 1511 1506 1502 1498 1494 1490 1485 1481 1476 1470 1466 1463 1462 1461 1461 1462 1463 1464 1464 1465 1467 1469 1472
1557 1561 1567 1572 1569 1560 1552 1542 1539 1544 1543 1543 1543 1542 1541 1539 1539 1537 1534 1532 1529 1525 1522 1521 1518 1514 1509 1504 1499 1494 1489 1485 1481 1477 1472 1466 1461 1457 1456 1455 1453 1452 1455 1457 1458 1459 1461 1463 1465
1563 1565 1563 1563 1561 1560 1564 1542 1533 1534 1536 1538 1539 1540 1540 1539 1537 1535 1533 1531 1527 1524 1520 1515 1512 1509 1504 1499 1495 1490 1485 1480 1476 1472 1467 1462 1456 1452 1450 1448 1447 1447 1448 1449 1451 1452 1455 1457 1459
1554 1558 1561 1571 1564 1560 1553 1536 1534 1534 1537 1540 1540 1539 1538 1538 1536 1534 1531 1528 1524 1520 1516 1511 1506 1503 1499 1495 1490 1484 1479 1475 1470 1466 1462 1457 1451 1447 1443 1442 1440 1441 1441 1443 1444 1446 1447 1450 1452